User: anonymous   Login
Location: Oshawa
(43.9000°N, 78.8670°W)
Time: 11:59:03
(UTC-04:00)
Language:

Altair - Orbit

View from above orbital plane
View from above orbital plane
View from above satellite
View from above satellite

Ground track
Ground track

The orbit data is extracted from the following two-line orbital elements,

1 00050U 60009B   15117.31248684 -.00000122  00000-0 -33669-3 0  9998
2 00050 047.2298 190.3037 0113538 128.7960 232.3033 12.20092015441362
Epoch (UTC): 27 April 2015 07:29:58
Eccentricity: 0.0113538
inclination: 47.2298°
perigee height: 1501 km
apogee height: 1682 km
right ascension of ascending node: 190.3037°
argument of perigee: 128.7960°
revolutions per day: 12.20092015
mean anomaly at epoch: 232.3033°
orbit number at epoch: 44136

The dashed part of the orbit path shows where the satellite is in the earth's shadow,  

DLR